Tracking 31027 objects as of 19-Jul-2025
HD Live streaming from Space Station
objects crossing your sky now

STARLINK-31419

Track STARLINK-31419 now!
10-day predictions
STARLINK-31419 is classified as:


NORAD ID: 59368
Int'l Code: 2024-060W
Perigee: 490.2 km
Apogee: 490.3 km
Inclination: 43.0 °
Period: 94.3 minutes
Semi major axis: 6861 km
RCS: Unknown
Launch date: March 31, 2024
Source: United States (US)
Launch site: AIR FORCE EASTERN TEST RANGE (AFETR)
Your satellite tracking list
BELINTERSAT 1
Track 1 satellite(s)




NASA's NSSDC Master Catalog

Two Line Element Set (TLE):
1 59368U 24060W   25199.53861938 -.00000183  00000-0  28423-5 0  9999
2 59368  43.0010 142.1128 0000093 126.5042 233.5818 15.27570718 74253
Source of the keplerian elements: AFSPC